Total_Precipitation_Accumulation
2.79 2.82 2.61 2.39 2.33 2.44 2.47 2.66 2.91 3.03 3.31 3.07 2.96 2.90 2.95 3.41 3.76 4.86 4.25 3.24 5.50 5.97 2.16 0.50 0.31 0.43 0.69 0.96 1.26 0.82 1.04 0.73 0.84 1.19 1.14 0.58 0.55 0.37 0.28 0.32 0.51 0.49 0.63 0.74 0.88 1.47 0.75 0.23 0.24 0.59 0.73 0.38 0.39 0.39
3.54 3.17 3.41 2.85 2.38 2.20 2.03 2.17 2.55 2.78 2.81 2.67 2.66 2.53 2.62 2.91 3.45 4.78 4.76 3.06 4.08 6.42 3.73 0.78 0.38 0.23 0.26 0.40 1.13 1.82 1.21 0.63 1.17 1.34 1.22 1.20 0.96 0.61 0.43 0.42 0.29 0.61 0.70 0.87 0.80 0.88 0.70 0.54 0.67 0.67 0.47 0.28 0.17 0.22
3.25 3.60 3.50 3.79 3.07 2.54 2.34 2.31 2.51 2.82 2.48 2.57 2.66 2.62 2.61 2.73 3.02 4.04 3.81 3.08 4.45 5.78 3.58 1.40 0.48 0.20 0.20 0.31 0.62 1.97 1.65 0.88 1.10 1.02 1.82 1.75 1.43 0.76 0.52 0.34 0.27 0.36 0.36 0.40 0.41 0.29 0.16 0.40 0.37 0.27 0.30 0.26 0.20 0.15
2.65 3.00 3.14 3.56 3.94 3.41 3.03 2.77 2.75 2.72 2.34 2.61 2.78 2.78 2.83 3.10 3.31 3.96 3.59 2.66 3.95 5.37 4.16 1.30 0.23 0.14 0.10 0.24 0.57 1.05 1.28 1.28 1.60 1.83 2.44 2.09 1.33 0.70 0.58 0.30 0.32 0.24 0.16 0.26 0.35 0.15 0.15 0.21 0.11 0.17 0.15 0.14 0.15 0.12
2.73 2.60 2.60 2.86 3.35 3.22 3.16 2.99 2.74 2.52 2.28 2.35 2.66 2.79 2.84 3.33 3.55 3.88 3.85 3.03 2.74 4.53 4.56 1.64 0.68 0.25 0.19 0.34 0.59 0.85 1.09 1.46 1.71 2.28 2.45 1.58 0.84 0.82 0.78 0.56 0.36 0.16 0.23 0.30 0.29 0.14 0.27 0.16 0.12 0.13 0.11 0.10 0.11 0.14
2.24 2.39 2.49 2.40 2.66 2.92 2.97 2.81 2.81 2.80 2.57 2.42 2.50 2.77 2.78 3.19 3.54 3.97 5.31 3.72 2.83 3.34 5.87 3.75 1.41 0.39 0.22 0.33 0.51 0.78 0.98 1.37 1.98 2.13 1.97 1.38 0.79 1.16 1.45 0.67 0.20 0.10 0.14 0.28 0.25 0.16 0.23 0.23 0.16 0.18 0.20 0.17 0.17 0.24
1.95 2.23 2.56 2.77 2.33 2.49 2.83 2.87 2.70 2.76 2.58 2.55 2.70 3.01 2.74 3.56 3.82 4.47 4.47 3.21 3.18 4.53 7.47 6.34 3.22 1.12 0.42 0.62 0.93 1.10 1.17 1.64 2.34 2.62 2.15 1.29 0.94 1.81 1.93 0.80 0.17 0.11 0.17 0.23 0.22 0.30 0.36 0.26 0.25 0.21 0.21 0.20 0.20 0.19
1.76 1.93 2.35 2.74 2.42 2.05 2.40 3.07 2.99 2.95 2.62 3.15 3.11 3.22 3.53 4.37 4.51 4.18 2.49 2.49 2.97 5.36 7.39 6.88 3.89 1.87 0.75 1.09 1.25 1.27 1.40 1.89 3.14 2.80 1.84 1.08 1.25 1.79 1.76 0.45 0.18 0.18 0.23 0.30 0.37 0.43 0.46 0.39 0.38 0.35 0.31 0.26 0.21 0.19
2.06 2.12 2.36 2.65 2.78 2.35 2.53 3.09 3.44 3.23 3.21 4.47 4.48 4.23 4.71 4.17 3.44 3.30 2.95 3.09 3.59 5.88 7.25 5.03 2.80 1.79 1.34 1.31 1.21 1.67 1.92 2.93 3.19 2.57 1.48 1.36 1.83 2.04 1.10 0.47 0.34 0.48 0.71 0.72 0.58 0.46 0.46 0.40 0.35 0.37 0.35 0.41 0.46 0.52
2.53 2.75 2.61 2.59 3.00 2.91 2.85 3.11 3.40 3.66 4.33 5.02 5.39 5.00 4.45 2.86 2.73 3.54 5.30 6.43 7.28 6.97 5.51 3.31 1.85 1.47 1.65 1.56 1.86 2.39 2.76 3.08 3.32 2.22 1.74 2.18 1.69 0.97 0.70 0.79 0.76 0.79 0.91 0.95 1.02 0.86 0.68 0.72 0.63 0.66 0.75 0.73 0.74 0.78
2.92 3.16 3.05 3.00 3.06 2.99 3.00 3.34 3.65 4.76 5.58 4.63 4.79 4.25 3.46 3.11 3.49 5.21 6.32 5.71 4.69 3.75 2.56 1.56 1.20 1.23 1.49 1.93 2.14 2.73 3.22 3.04 2.91 1.87 1.70 1.84 1.39 0.78 0.67 0.80 0.84 0.85 0.92 0.89 1.09 1.13 1.06 1.22 1.23 1.01 1.01 1.02 1.02 0.99
3.36 3.58 3.50 3.09 3.16 3.03 3.18 3.51 3.90 3.83 4.25 4.30 4.06 3.73 3.85 4.67 5.40 5.27 4.56 2.86 2.06 1.71 1.55 1.24 1.10 1.22 1.80 2.13 2.89 3.13 2.71 2.53 2.19 1.34 1.75 1.43 0.93 0.81 0.94 0.93 0.92 0.90 0.90 0.86 0.89 1.00 0.96 0.88 0.97 0.96 0.99 0.98 0.91 0.92
3.55 3.85 3.71 3.44 3.30 3.34 3.62 4.02 4.05 3.80 4.06 4.40 5.06 5.29 4.56 4.66 4.65 3.39 2.05 1.46 1.35 1.19 1.21 1.03 1.29 1.56 2.16 2.64 3.34 2.96 2.60 1.91 1.49 1.44 1.36 0.96 0.77 0.77 0.91 1.04 1.09 1.05 0.94 1.02 1.01 0.92 0.81 0.79 0.80 0.79 0.82 0.73 0.69 0.65
3.94 3.85 3.54 3.56 3.38 3.49 4.16 4.93 4.29 3.69 4.65 5.81 5.17 4.32 2.90 2.43 1.60 1.26 1.08 1.07 1.15 1.38 1.48 1.56 1.65 1.86 2.19 2.43 2.51 2.42 1.98 1.52 1.75 1.33 1.06 0.91 0.87 0.80 0.76 0.83 0.87 0.91 0.90 0.95 1.28 1.30 1.12 1.07 0.99 0.87 0.84 0.83 0.73 0.67
3.96 3.96 4.01 4.02 3.86 4.00 4.76 4.94 4.53 4.30 5.63 5.98 4.38 2.79 1.67 1.10 0.87 1.03 1.07 1.10 1.25 1.58 1.91 2.00 2.09 2.10 2.22 2.48 1.90 1.60 1.72 1.75 1.30 1.10 1.07 1.04 1.04 0.98 0.90 0.82 0.77 0.77 0.84 0.85 0.94 1.03 1.03 0.89 0.67 0.69 0.87 0.86 0.71 0.64
4.81 5.88 5.00 4.03 3.93 4.56 4.93 4.91 5.57 5.90 5.86 4.69 3.41 1.77 1.00 0.81 0.94 0.82 0.96 1.08 1.14 1.33 1.67 2.02 2.05 2.01 1.94 1.77 1.58 1.36 1.35 1.18 1.17 1.20 1.21 1.09 1.03 1.00 1.00 0.94 0.88 0.87 0.88 0.93 0.89 0.96 0.89 0.91 0.98 0.98 0.84 0.91 0.83 0.73
6.21 6.15 4.38 3.56 4.35 5.66 5.62 6.06 7.25 6.83 5.89 4.05 1.91 1.10 0.99 0.86 0.81 0.75 0.73 0.73 0.82 1.03 1.25 1.57 1.74 1.36 1.46 1.43 1.15 1.04 1.24 1.24 1.12 0.97 0.88 0.88 0.84 0.82 0.81 0.72 0.69 0.67 0.63 0.66 0.76 0.86 0.99 1.06 0.98 0.89 0.85 1.02 0.97 1.02
5.49 4.18 3.69 3.62 4.68 6.12 8.15 7.73 6.90 5.81 3.83 1.91 1.03 1.00 0.83 0.74 0.65 0.59 0.59 0.61 0.68 0.78 1.06 1.35 0.96 0.87 0.82 0.73 0.77 1.08 1.03 0.81 0.71 0.69 0.65 0.69 0.66 0.63 0.62 0.59 0.56 0.55 0.61 0.68 0.69 0.72 0.73 0.66 0.62 0.78 0.81 0.83 0.66 0.74
4.61 4.17 4.66 4.19 4.56 6.17 7.44 7.50 5.57 3.69 1.75 1.13 1.06 0.95 0.68 0.54 0.51 0.50 0.48 0.47 0.56 0.72 1.02 1.19 1.21 0.77 0.53 0.71 0.76 0.78 0.74 0.56 0.53 0.53 0.55 0.58 0.57 0.58 0.59 0.61 0.56 0.56 0.68 0.66 0.51 0.62 0.66 0.62 0.76 0.75 0.72 0.60 0.59 0.72
5.87 6.24 5.53 4.95 5.16 6.90 6.63 5.40 3.38 1.91 1.28 0.91 0.86 0.76 0.58 0.51 0.44 0.41 0.50 0.52 0.65 1.10 1.42 1.29 0.94 0.77 0.79 0.89 0.78 0.71 0.65 0.54 0.46 0.40 0.42 0.38 0.40 0.38 0.36 0.37 0.43 0.52 0.47 0.43 0.45 0.51 0.48 0.33 0.38 0.50 0.59 0.68 0.54 0.62
7.49 7.36 6.71 6.22 6.81 6.35 5.23 3.36 2.06 1.22 0.83 0.72 0.87 0.59 0.56 0.41 0.35 0.43 0.58 0.66 1.05 1.43 1.25 0.96 0.87 0.91 0.84 0.78 0.69 0.59 0.57 0.52 0.49 0.46 0.47 0.47 0.44 0.28 0.23 0.19 0.19 0.16 0.16 0.17 0.17 0.23 0.28 0.22 0.27 0.30 0.26 0.29 0.33 0.35
6.76 6.32 7.27 7.56 7.10 5.95 4.56 2.75 1.42 0.88 0.57 0.75 0.60 0.47 0.51 0.44 0.41 0.46 0.52 0.88 1.25 0.97 0.84 0.95 0.96 0.86 0.69 0.61 0.67 0.63 0.65 0.50 0.41 0.39 0.38 0.33 0.22 0.17 0.15 0.13 0.12 0.10 0.10 0.11 0.12 0.10 0.10 0.09 0.21 0.28 0.17 0.17 0.18 0.16
5.08 5.35 5.82 5.85 5.50 4.56 3.30 1.57 1.11 0.90 0.67 0.67 0.53 0.48 0.48 0.39 0.43 0.49 0.87 0.77 0.65 0.72 0.82 0.79 0.75 0.78 0.75 0.74 0.70 0.58 0.49 0.39 0.30 0.24 0.21 0.14 0.13 0.12 0.11 0.09 0.08 0.12 0.12 0.09 0.09 0.12 0.11 0.11 0.16 0.23 0.11 0.12 0.17 0.22
4.73 5.59 5.67 5.25 3.72 2.76 1.93 1.56 1.12 0.76 0.78 0.58 0.48 0.40 0.31 0.29 0.46 0.70 0.72 0.43 0.51 0.59 0.62 0.62 0.57 0.61 0.62 0.59 0.54 0.50 0.47 0.38 0.29 0.21 0.18 0.16 0.14 0.12 0.09 0.09 0.09 0.11 0.16 0.16 0.08 0.06 0.05 0.05 0.10 0.12 0.10 0.11 0.16 0.22
6.21 6.43 4.80 3.95 2.33 1.26 0.86 0.70 0.65 0.62 0.60 0.45 0.35 0.31 0.28 0.36 0.52 0.49 0.32 0.33 0.40 0.47 0.53 0.50 0.46 0.47 0.45 0.42 0.37 0.32 0.29 0.35 0.41 0.41 0.33 0.28 0.36 0.36 0.24 0.14 0.09 0.08 0.09 0.12 0.09 0.07 0.04 0.04 0.06 0.07 0.10 0.20 0.30 0.44
5.30 3.12 2.26 1.26 0.85 0.51 0.46 0.42 0.39 0.33 0.30 0.37 0.41 0.40 0.39 0.51 0.62 0.42 0.21 0.31 0.38 0.43 0.41 0.33 0.32 0.28 0.24 0.25 0.33 0.37 0.36 0.38 0.44 0.44 0.38 0.36 0.35 0.31 0.26 0.21 0.15 0.12 0.13 0.19 0.24 0.19 0.13 0.07 0.08 0.10 0.15 0.23 0.46 0.61
3.46 2.08 1.00 0.49 0.42 0.38 0.33 0.29 0.28 0.30 0.35 0.37 0.29 0.29 0.40 0.69 0.42 0.26 0.33 0.36 0.34 0.26 0.19 0.21 0.28 0.31 0.31 0.31 0.29 0.28 0.26 0.28 0.29 0.24 0.28 0.39 0.40 0.35 0.32 0.32 0.30 0.24 0.37 0.33 0.27 0.30 0.28 0.19 0.17 0.18 0.27 0.28 0.32 0.41
1.78 0.79 0.53 0.46 0.29 0.21 0.20 0.20 0.27 0.32 0.29 0.25 0.28 0.26 0.32 0.25 0.19 0.27 0.31 0.34 0.19 0.08 0.10 0.15 0.20 0.24 0.23 0.24 0.26 0.26 0.27 0.27 0.30 0.31 0.35 0.42 0.45 0.46 0.45 0.41 0.44 0.58 0.61 0.39 0.48 0.50 0.40 0.34 0.30 0.32 0.38 0.33 0.22 0.25
0.57 0.41 0.34 0.37 0.28 0.21 0.19 0.16 0.13 0.15 0.16 0.17 0.16 0.13 0.14 0.22 0.29 0.28 0.31 0.19 0.07 0.07 0.09 0.13 0.16 0.19 0.24 0.26 0.27 0.29 0.30 0.30 0.28 0.26 0.21 0.26 0.34 0.47 0.52 0.48 0.49 0.50 0.46 0.45 0.50 0.61 0.69 0.91 1.06 1.09 0.74 0.52 0.38 0.34
0.24 0.10 0.07 0.09 0.15 0.23 0.19 0.16 0.15 0.16 0.17 0.16 0.15 0.16 0.18 0.31 0.44 0.37 0.18 0.08 0.07 0.10 0.14 0.18 0.22 0.26 0.28 0.30 0.31 0.30 0.32 0.37 0.39 0.37 0.39 0.32 0.31 0.40 0.47 0.50 0.53 0.54 0.55 0.53 0.58 0.63 0.75 0.85 0.79 0.73 0.60 0.50 0.46 0.43
0.08 0.04 0.03 0.03 0.05 0.11 0.16 0.17 0.16 0.16 0.16 0.16 0.13 0.10 0.15 0.25 0.33 0.27 0.10 0.07 0.09 0.13 0.18 0.24 0.26 0.32 0.35 0.38 0.41 0.41 0.41 0.47 0.53 0.55 0.58 0.61 0.52 0.54 0.55 0.59 0.60 0.61 0.63 0.61 0.56 0.53 0.52 0.50 0.45 0.43 0.41 0.39 0.39 0.47
0.08 0.04 0.02 0.02 0.06 0.10 0.12 0.12 0.12 0.14 0.16 0.13 0.16 0.16 0.16 0.14 0.14 0.14 0.13 0.11 0.13 0.15 0.21 0.27 0.28 0.33 0.38 0.40 0.45 0.53 0.64 0.57 0.54 0.67 0.73 0.80 0.87 0.88 0.80 0.71 0.65 0.66 0.68 0.67 0.62 0.61 0.59 0.59 0.56 0.52 0.52 0.49 0.49 0.47
0.16 0.14 0.11 0.10 0.14 0.12 0.09 0.10 0.12 0.12 0.11 0.11 0.12 0.13 0.15 0.14 0.12 0.12 0.15 0.16 0.17 0.19 0.21 0.26 0.32 0.33 0.32 0.33 0.38 0.44 0.52 0.52 0.61 0.82 1.09 1.25 1.33 1.57 1.35 0.90 0.74 0.73 0.73 0.68 0.68 0.69 0.69 0.65 0.62 0.61 0.59 0.57 0.53 0.51